Waseca, MN

8:09 AM CDT on September 26, 2016 (GMT -0500)
Waseca Municipal

Weather History for KACQ - July, 2013

Change the Weather History Date:

Sunday, July 7, 2013

  Actual Average Record
Temperature  
Mean Temperature 81 °F -  
Max Temperature 91 °F 81 °F 100 °F (1936)
Min Temperature 71 °F 61 °F 45 °F (1958)
Cooling Degree Days 16    
Growing Degree Days 31 (Base 50)    
Moisture  
Dew Point 64 °F    
Average Humidity 61    
Maximum Humidity 88    
Minimum Humidity 43    
Precipitation  
Precipitation 0.09 in - - ()
Sea Level Pressure  
Sea Level Pressure 29.89 in    
Wind  
Wind Speed 10 mph (SSW)    
Max Wind Speed 20 mph    
Max Gust Speed 21 mph    
Visibility 10 miles    
Events Rain , Thunderstorm    
Averages and records for this station are not official NWS values.
T = Trace of Precipitation, MM = Missing Value Source: NWS Daily Summary

Daily Weather History Graph

Daily Weather History Graph

Search for Another Location

Airport or City:

Trip Planner

Search our weather history database for the weather conditions in past years. The results will help you decide how hot, cold, wet, or windy it might be!

Date:

Astronomy

Jul. 07, 2013 Rise Set
Actual Time 5:38 AM CDT 8:59 PM CDT
Civil Twilight 5:03 AM CDT 9:34 PM CDT
Nautical Twilight 4:16 AM CDT 10:21 PM CDT
Astronomical Twilight 3:18 AM CDT 11:19 PM CDT
Moon 5:17 AM CDT (7/7) 8:20 PM CDT (7/7)
Length of Visible Light 16h 31m
Length of Day
15h 20m
Waning Crescent, 0% of the Moon is Illuminated
Jul 7
Waning Crescent
Jul 8
New
Jul 15
First Quarter
Jul 22
Full
Jul 29
Last Quarter

Hourly Weather History & Observations

Time (CDT) Temp. Heat Index Dew Point Humidity Pressure Visibility Wind Dir Wind Speed Gust Speed Precip Events Conditions
12:15 AM 77.0 °F - 60.8 °F 57% 29.89 in 10.0 mi SSE 11.5 mph 17.3 mph N/A   Clear
12:35 AM 77.0 °F - 60.8 °F 57% 29.89 in 10.0 mi South 12.7 mph - N/A   Clear
12:56 AM 77.0 °F - 60.8 °F 57% 29.89 in 10.0 mi South 15.0 mph 20.7 mph N/A   Clear
1:16 AM 77.0 °F - 62.6 °F 61% 29.88 in 10.0 mi South 15.0 mph 18.4 mph N/A   Clear
1:35 AM 77.0 °F - 62.6 °F 61% 29.89 in 10.0 mi South 12.7 mph - N/A   Clear
1:56 AM 77.0 °F - 62.6 °F 61% 29.88 in 10.0 mi South 13.8 mph - N/A   Clear
2:15 AM 77.0 °F - 62.6 °F 61% 29.88 in 10.0 mi South 11.5 mph - N/A   Clear
2:35 AM 77.0 °F - 64.4 °F 65% 29.88 in 10.0 mi South 11.5 mph - N/A   Scattered Clouds
2:55 AM 77.0 °F - 64.4 °F 65% 29.89 in 10.0 mi South 11.5 mph - N/A   Scattered Clouds
3:15 AM 77.0 °F - 64.4 °F 65% 29.89 in 10.0 mi SSW 9.2 mph - N/A   Scattered Clouds
3:35 AM 73.4 °F - 62.6 °F 69% 29.89 in 10.0 mi SSW 10.4 mph - N/A   Scattered Clouds
3:55 AM 73.4 °F - 62.6 °F 69% 29.89 in 10.0 mi SSW 11.5 mph - N/A   Clear
4:16 AM 73.4 °F - 62.6 °F 69% 29.89 in 10.0 mi SSW 12.7 mph - N/A   Clear
4:35 AM 77.0 °F - 64.4 °F 65% 29.89 in 10.0 mi SSW 12.7 mph - N/A   Clear
4:56 AM 73.4 °F - 62.6 °F 69% 29.89 in 10.0 mi SSW 9.2 mph - N/A   Clear
5:15 AM 71.6 °F - 60.8 °F 69% 29.89 in 10.0 mi South 6.9 mph - N/A   Clear
5:35 AM 71.6 °F - 60.8 °F 69% 29.89 in 10.0 mi South 6.9 mph - N/A   Clear
5:56 AM 71.6 °F - 60.8 °F 69% 29.89 in 10.0 mi South 5.8 mph - N/A   Clear
6:16 AM 71.6 °F - 62.6 °F 73% 29.89 in 10.0 mi South 4.6 mph - N/A   Clear
6:35 AM 71.6 °F - 62.6 °F 73% 29.89 in 10.0 mi South 4.6 mph - N/A   Clear
6:55 AM 71.6 °F - 62.6 °F 73% 29.89 in 10.0 mi South 5.8 mph - N/A   Clear
7:15 AM 71.6 °F - 62.6 °F 73% 29.90 in 10.0 mi South 5.8 mph - N/A   Clear
7:35 AM 73.4 °F - 62.6 °F 69% 29.89 in 10.0 mi South 6.9 mph - N/A   Clear
7:56 AM 77.0 °F - 64.4 °F 65% 29.90 in 10.0 mi SSW 9.2 mph - N/A   Clear
8:15 AM 77.0 °F - 62.6 °F 61% 29.90 in 10.0 mi SSW 10.4 mph - N/A   Clear
8:36 AM 77.0 °F - 62.6 °F 61% 29.91 in 10.0 mi SSW 11.5 mph - N/A   Clear
8:55 AM 77.0 °F - 62.6 °F 61% 29.91 in 10.0 mi SSW 13.8 mph 20.7 mph N/A   Clear
9:15 AM 78.8 °F - 62.6 °F 57% 29.90 in 10.0 mi SSW 13.8 mph - N/A   Clear
9:36 AM 78.8 °F - 62.6 °F 57% 29.90 in 10.0 mi SW 13.8 mph - N/A   Clear
9:56 AM 78.8 °F - 62.6 °F 57% 29.90 in 10.0 mi SW 10.4 mph - N/A   Clear
10:16 AM 78.8 °F - 62.6 °F 57% 29.89 in 10.0 mi WSW 5.8 mph 9.2 mph N/A   Clear
10:36 AM 80.6 °F 81.8 °F 62.6 °F 54% 29.90 in 10.0 mi SSW 11.5 mph - N/A   Clear
10:56 AM 80.6 °F 81.8 °F 62.6 °F 54% 29.90 in 10.0 mi SW 6.9 mph - N/A   Clear
11:16 AM 80.6 °F 81.8 °F 62.6 °F 54% 29.90 in 10.0 mi SSW 5.8 mph - N/A   Clear
11:35 AM 80.6 °F 81.8 °F 62.6 °F 54% 29.89 in 10.0 mi WSW 5.8 mph - N/A   Clear
11:55 AM 82.4 °F 83.4 °F 62.6 °F 51% 29.89 in 10.0 mi SSE 4.6 mph - N/A   Clear
12:16 PM 82.4 °F 83.4 °F 62.6 °F 51% 29.89 in 10.0 mi SSW 4.6 mph - N/A   Clear
12:35 PM 82.4 °F 83.9 °F 64.4 °F 54% 29.89 in 10.0 mi SSW 9.2 mph - N/A   Scattered Clouds
12:55 PM 82.4 °F 83.4 °F 62.6 °F 51% 29.89 in 10.0 mi South 6.9 mph - N/A   Overcast
1:16 PM 84.2 °F 85.0 °F 62.6 °F 48% 29.88 in 10.0 mi SE 8.1 mph - N/A   Scattered Clouds
1:36 PM 84.2 °F 85.0 °F 62.6 °F 48% 29.88 in 10.0 mi South 8.1 mph - N/A   Clear
1:55 PM 86.0 °F 86.6 °F 62.6 °F 45% 29.88 in 10.0 mi South 5.8 mph - N/A   Clear
2:16 PM 86.0 °F 86.6 °F 62.6 °F 45% 29.88 in 10.0 mi South 4.6 mph - N/A   Scattered Clouds
2:36 PM 86.0 °F 87.3 °F 64.4 °F 48% 29.88 in 10.0 mi SSW 10.4 mph - N/A   Scattered Clouds
2:56 PM 87.8 °F 89.4 °F 64.4 °F 46% 29.88 in 10.0 mi South 6.9 mph - N/A   Scattered Clouds
3:16 PM 87.8 °F 89.4 °F 64.4 °F 46% 29.88 in 10.0 mi SSW 8.1 mph - N/A   Scattered Clouds
3:35 PM 91.4 °F 95.4 °F 68.0 °F 46% 29.88 in 10.0 mi SW 10.4 mph - N/A   Mostly Cloudy
3:56 PM 91.4 °F 94.0 °F 66.2 °F 43% 29.87 in 10.0 mi SW 5.8 mph - N/A   Scattered Clouds
4:16 PM 87.8 °F 89.4 °F 64.4 °F 46% 29.87 in 10.0 mi SSW 6.9 mph - N/A   Mostly Cloudy
4:36 PM 87.8 °F 89.4 °F 64.4 °F 46% 29.86 in 10.0 mi SSW 5.8 mph - N/A   Mostly Cloudy
4:56 PM 86.0 °F 87.3 °F 64.4 °F 48% 29.86 in 10.0 mi SW 4.6 mph - N/A   Mostly Cloudy
5:16 PM 86.0 °F 87.3 °F 64.4 °F 48% 29.86 in 10.0 mi SW 5.8 mph - N/A   Overcast
5:35 PM 86.0 °F 87.3 °F 64.4 °F 48% 29.86 in 10.0 mi SSW 4.6 mph - N/A   Mostly Cloudy
5:56 PM 87.8 °F 90.4 °F 66.2 °F 49% 29.86 in 10.0 mi WSW 6.9 mph - N/A   Scattered Clouds
6:15 PM 87.8 °F 90.4 °F 66.2 °F 49% 29.85 in 10.0 mi West 5.8 mph - N/A   Clear
6:36 PM 86.0 °F 87.3 °F 64.4 °F 48% 29.85 in 10.0 mi WSW 5.8 mph - N/A   Clear
6:55 PM 86.0 °F 87.3 °F 64.4 °F 48% 29.84 in 10.0 mi West 4.6 mph - N/A   Clear
7:16 PM 84.2 °F 86.6 °F 66.2 °F 55% 29.85 in 10.0 mi WNW 6.9 mph - N/A   Clear
7:36 PM 82.4 °F 85.4 °F 68.0 °F 62% 29.86 in 10.0 mi WNW 5.8 mph - N/A   Clear
7:56 PM 82.4 °F 84.6 °F 66.2 °F 58% 29.86 in 10.0 mi NW 5.8 mph - N/A   Clear
8:16 PM 82.4 °F 84.6 °F 66.2 °F 58% 29.86 in 10.0 mi WNW 4.6 mph - N/A   Scattered Clouds
8:36 PM 80.6 °F 83.2 °F 68.0 °F 65% 29.86 in 10.0 mi NNW 3.5 mph - N/A Thunderstorm Mostly Cloudy
8:56 PM 80.6 °F 83.2 °F 68.0 °F 65% 29.88 in 10.0 mi Calm Calm - N/A Thunderstorm Overcast
9:15 PM 80.6 °F 83.2 °F 68.0 °F 65% 29.88 in 10.0 mi NW 4.6 mph - N/A Thunderstorm Thunderstorm
9:36 PM 78.8 °F - 68.0 °F 69% 29.89 in 10.0 mi North 13.8 mph - N/A   Overcast
9:56 PM 77.0 °F - 69.8 °F 78% 29.91 in 7.0 mi NNW 19.6 mph - 0.03 in Rain , Thunderstorm Light Thunderstorms and Rain
10:16 PM 71.6 °F - 66.2 °F 83% 29.92 in 7.0 mi NNW 17.3 mph - N/A Rain , Thunderstorm Rain
10:36 PM 71.6 °F - 68.0 °F 88% 29.93 in 10.0 mi NW 3.5 mph - 0.01 in Rain Rain
10:56 PM 71.6 °F - 68.0 °F 88% 29.92 in 7.0 mi SE 4.6 mph - 0.03 in Rain Light Rain
11:15 PM 71.6 °F - 68.0 °F 88% 29.90 in 7.0 mi SSE 8.1 mph - 0.02 in Rain Rain
11:36 PM 71.6 °F - 68.0 °F 88% 29.92 in 7.0 mi WNW 4.6 mph - 0.03 in Rain Light Rain
11:55 PM 71.6 °F - 68.0 °F 88% 29.91 in 10.0 mi Calm Calm - 0.03 in   Light Drizzle